Location: Linz
(48.3300°N, 14.3000°E)
Time: 19:33:54
(UTC+02:00)

ISS - Visible Passes

Search period start: 17 July 2018 00:00
Search period end: 27 July 2018 00:00
Orbit: 402 x 408 km, 51.6° (Epoch: 18 July)

Date Brightness Start Highest point End Pass type
(mag) Time Alt. Az. Time Alt. Az. Time Alt. Az.
17 Jul -1.5 00:08:34 15° E 00:08:34 15° E 00:09:15 10° ENE visible
17 Jul -3.2 01:41:11 29° WNW 01:42:35 55° NNW 01:45:50 10° ENE visible
17 Jul -2.8 03:16:10 10° WNW 03:19:23 48° N 03:22:37 10° E visible
18 Jul -3.7 00:50:11 67° WNW 00:50:26 72° NNW 00:53:44 10° ENE visible
18 Jul -2.7 02:24:01 10° WNW 02:27:12 44° N 02:30:24 10° ENE visible
18 Jul -3.8 04:00:37 10° WNW 04:03:56 84° NNE 04:07:14 10° ESE visible
18 Jul -4.0 23:58:10 77° SSW 23:58:19 81° SSE 00:01:38 10° ENE visible
19 Jul -2.7 01:31:48 10° W 01:35:00 45° N 01:38:12 10° ENE visible
19 Jul -3.3 03:08:30 10° WNW 03:11:47 62° NNE 03:15:04 10° E visible
19 Jul -3.8 23:03:03 10° SW 23:06:15 52° SSE 23:09:28 10° ENE visible
20 Jul -3.0 00:39:34 10° W 00:42:48 51° N 00:46:02 10° ENE visible
20 Jul -2.9 02:16:22 10° WNW 02:19:36 50° N 02:22:50 10° E visible
20 Jul -3.8 03:52:55 10° WNW 03:56:09 55° SSW 03:59:23 10° SE visible
20 Jul -3.1 22:11:16 10° SSW 22:14:14 32° SE 22:17:13 10° E visible
20 Jul -3.4 23:47:20 10° W 23:50:35 64° NNW 23:53:52 10° ENE visible
21 Jul -2.7 01:24:11 10° WNW 01:27:23 45° N 01:30:35 10° E visible
21 Jul -4.0 03:00:45 10° WNW 03:04:04 85° SSW 03:07:22 10° ESE visible
21 Jul -2.3 04:37:51 10° W 04:40:11 18° SW 04:42:29 10° S visible
21 Jul -3.9 22:55:08 10° WSW 22:58:25 88° NNW 23:01:44 10° ENE visible
22 Jul -2.7 00:31:57 10° WNW 00:35:08 45° N 00:38:20 10° ENE visible
22 Jul -3.6 02:08:37 10° WNW 02:11:55 69° NNE 02:15:12 10° ESE visible
22 Jul -3.0 03:45:19 10° W 03:48:13 29° SW 03:51:07 10° SSE visible
22 Jul -3.9 22:03:03 10° SW 22:06:17 62° SSE 22:09:33 10° ENE visible
22 Jul -2.9 23:39:40 10° W 23:42:53 49° N 23:46:06 10° ENE visible
23 Jul -3.1 01:16:27 10° WNW 01:19:41 54° NNE 01:20:44 36° ENE visible
23 Jul -1.3 02:53:00 10° WNW 02:53:14 11° WNW 02:53:14 11° WNW visible
23 Jul -3.2 22:47:24 10° W 22:50:38 59° NNW 22:53:54 10° ENE visible
24 Jul -2.8 00:24:15 10° WNW 00:27:26 46° N 00:29:01 25° ENE visible
24 Jul -1.5 02:00:47 10° WNW 02:01:36 16° WNW 02:01:36 16° WNW visible
24 Jul -3.7 21:55:09 10° WSW 21:58:25 78° NNW 22:01:43 10° ENE visible
24 Jul -2.7 23:31:59 10° WNW 23:35:10 44° N 23:37:59 12° ENE visible
25 Jul -2.5 01:08:36 10° WNW 01:10:37 34° WNW 01:10:37 34° WNW visible
25 Jul -2.8 22:39:40 10° W 22:42:52 46° N 22:46:04 10° ENE visible
26 Jul -3.3 00:16:25 10° WNW 00:19:40 58° NNE 00:19:48 58° NNE visible
26 Jul -3.0 21:47:21 10° W 21:50:35 54° NNW 21:53:49 10° ENE visible
26 Jul -2.9 23:24:11 10° WNW 23:27:23 48° N 23:29:05 24° ENE visible
